RESURS O1 DEB, 23344

Orbit data source: Space-Track

RESURS O1 DEB, 23344 is space debris in SSO originally from a launch on Fri, 04 Nov 1994 UTC launched from the Tyuratam Missile And Space Complex (TTMTR). Debris objects in space refer to the collection of defunct objects orbiting the Earth. Examples of debris include non-operational satellites, rocket bodies, and fragments generated from explosions, collisions, or faulty payload assembly.

Loading next visibility...
Identifier
23344, 1994-074C
Orbit
SSO
Country
Flag of CISCIS
Related business
Manufacturer
Yuzhnoe
Mission
Spacecraft
Bus & Motor
SEP MOTOR COVER, Unknown motor
Mass
~0 kg wet, ~1 kg dry
Launch date (UTC)
1994-11-04 (32 years ago)
Launch vehicle
Unknown
Launch site
Tyuratam Missile And Space Complex (TTMTR)
Object type
Payload
Rocket body
Debris
Shape & HBR
Unknown shape, 0.2 m
Radar Cross Section
Medium (>0.1 m² and <1 m²)

Expand to show TLE details & history
Last TLE update: 14 hours ago

TLE from 14 hours ago
0 RESURS O1 DEB
1 23344U 94074C   26165.97548137  .00001316  00000-0  25863-3 0  9992
2 23344  97.9606 174.3805 0118159  83.9209 334.3540 14.59884830672916
Epoch: 2026-06-14T23:24Z
TLE epoch observation values (Epoch: 2026-06-14T23:24:41.590Z)
Latitude
56.92064°
Longitude
-92.38972°
Altitude
627.931 km
Speed
7.59 km/s
True Right ascension
10h 48m 12s
True Declination
56° 45' 37"
Sunlit
Object was in daylight at epoch
Visualization orbit readout
Latitude
Unknown
Longitude
Unknown
Altitude
Unknown
Speed
Unknown
Apparent Right ascension
Unknown
Apparent Declination
Unknown
Sunlit
N/A
Visualization observer readout
Local Sidereal Time
00:22:33
Azimuth
Unknown
Elevation
Unknown
Doppler factor
Unknown
Orbital elements
Apogee altitude
774.139 km
Perigee altitude
607.092 km
Semi-major axis
7,068.753 km
Eccentricity
0.01182
Inclination
97.9606°
RAAN
174.3805°
Arg. of periapsis
83.9209°
True anomaly
333.76008°
Mean anomaly
334.354°
Eccentric anomaly
334.05784°
Mean motion
3.65198 °/min
Orbital period
98.58 mins
BSTAR
0.00025863
Loading maneuver chart data...
Computing Atmospheric mass density...

Documentation

Showing up to 5 results
|